Hinesville, GA

1:34 PM EST on February 14, 2016 (GMT -0500)
Wright Army Air Field

Weather History for KLHW - July, 2014

Change the Weather History Date:

Tuesday, July 29, 2014

  Actual Average Record
Temperature  
Mean Temperature 82 °F -  
Max Temperature 91 °F 93 °F 101 °F (1981)
Min Temperature 72 °F 72 °F 67 °F (1984)
Cooling Degree Days 16    
Growing Degree Days 32 (Base 50)    
Moisture  
Dew Point 66 °F    
Average Humidity 65    
Maximum Humidity 85    
Minimum Humidity 33    
Precipitation  
Precipitation 0.00 in - - ()
Sea Level Pressure  
Sea Level Pressure 29.91 in    
Wind  
Wind Speed 5 mph (NW)    
Max Wind Speed 9 mph    
Max Gust Speed -    
Visibility 10 miles    
Events      
Averages and records for this station are not official NWS values.
T = Trace of Precipitation, MM = Missing Value Source: NWS Daily Summary

Daily Weather History Graph

Daily Weather History Graph

Search for Another Location

Airport or City:

Trip Planner

Search our weather history database for the weather conditions in past years. The results will help you decide how hot, cold, wet, or windy it might be!

Date:

Astronomy

Jul. 29, 2014 Rise Set
Actual Time 6:39 AM EDT 8:25 PM EDT
Civil Twilight 6:13 AM EDT 8:51 PM EDT
Nautical Twilight 5:40 AM EDT 9:24 PM EDT
Astronomical Twilight 5:06 AM EDT 9:58 PM EDT
Moon 9:02 AM EDT (7/29) 9:50 PM EDT (7/29)
Length of Visible Light 14h 38m
Length of Day
13h 45m
Waxing Crescent, 7% of the Moon is Illuminated
Jul 29
Waxing Crescent
Aug 3
First Quarter
Aug 10
Full
Aug 17
Last Quarter
Aug 25
New

Hourly Weather History & Observations

Time (EDT) Temp. Heat Index Dew Point Humidity Pressure Visibility Wind Dir Wind Speed Gust Speed Precip Events Conditions
12:58 AM 77.7 °F - 71.2 °F 80% 29.88 in 10.0 mi West 8.1 mph - N/A   Mostly Cloudy
1:58 AM 77.5 °F - 70.7 °F 79% 29.88 in 10.0 mi West 9.2 mph - N/A   Clear
2:43 AM 75.2 °F - 69.8 °F 83% 29.86 in 9.0 mi WNW 5.8 mph - N/A   Clear
2:58 AM 75.6 °F - 70.5 °F 84% 29.87 in 8.0 mi WNW 4.6 mph - N/A   Clear
3:08 AM 75.2 °F - 69.8 °F 83% 29.86 in 10.0 mi West 3.5 mph - N/A   Clear
3:58 AM 74.7 °F - 70.0 °F 85% 29.87 in 10.0 mi WNW 4.6 mph - N/A   Scattered Clouds
4:58 AM 73.9 °F - 68.7 °F 84% 29.88 in 10.0 mi West 3.5 mph - N/A   Mostly Cloudy
5:58 AM 74.1 °F - 66.4 °F 77% 29.90 in 10.0 mi NW 3.5 mph - N/A   Mostly Cloudy
6:58 AM 72.9 °F - 66.9 °F 82% 29.91 in 10.0 mi Variable 1.2 mph - N/A   Mostly Cloudy
7:58 AM 73.9 °F - 65.7 °F 75% 29.91 in 10.0 mi NNW 5.8 mph - N/A   Partly Cloudy
8:58 AM 77.2 °F - 64.9 °F 66% 29.92 in 10.0 mi North 4.6 mph - N/A   Clear
9:58 AM 80.6 °F 82.3 °F 64.4 °F 58% 29.93 in 10.0 mi Variable 4.6 mph - N/A   Clear
10:58 AM 82.9 °F 84.8 °F 65.1 °F 55% 29.94 in 10.0 mi NNE 1.2 mph - N/A   Clear
11:58 AM 84.9 °F 86.6 °F 64.8 °F 51% 29.94 in 10.0 mi Calm Calm - N/A   Clear
12:58 PM 87.4 °F 89.5 °F 65.5 °F 48% 29.93 in 10.0 mi West 8.1 mph - N/A   Clear
1:58 PM 88.7 °F 89.1 °F 62.2 °F 41% 29.92 in 10.0 mi Variable 2.3 mph - N/A   Partly Cloudy
2:58 PM 90.0 °F 91.0 °F 63.7 °F 41% 29.91 in 10.0 mi NW 8.1 mph - N/A   Partly Cloudy
3:58 PM 91.6 °F 91.0 °F 59.5 °F 34% 29.90 in 10.0 mi NNW 9.2 mph - N/A   Clear
4:58 PM 90.9 °F 89.7 °F 58.5 °F 33% 29.89 in 10.0 mi WNW 8.1 mph - N/A   Clear
5:58 PM 90.9 °F 90.3 °F 59.4 °F 35% 29.89 in 10.0 mi NNW 9.2 mph - N/A   Clear
6:58 PM 88.9 °F 89.1 °F 61.7 °F 40% 29.90 in 10.0 mi North 6.9 mph - N/A   Clear
7:58 PM 84.7 °F 86.6 °F 65.5 °F 52% 29.91 in 10.0 mi Calm Calm - N/A   Clear
8:58 PM 77.9 °F - 67.8 °F 71% 29.93 in 10.0 mi Calm Calm - N/A   Partly Cloudy
9:58 PM 75.2 °F - 67.1 °F 76% 29.95 in 10.0 mi Calm Calm - N/A   Partly Cloudy
10:58 PM 73.8 °F - 68.2 °F 83% 29.96 in 10.0 mi Calm Calm - N/A   Mostly Cloudy
11:58 PM 73.4 °F - 68.2 °F 84% 29.96 in 10.0 mi Calm Calm - N/A   Partly Cloudy